Location: Grantsboro
(35.1404°N, 76.8424°W)
Time: 22:40:40
(UTC+00:00)

CZ-3 R/B - Pass Details

Date: 18 January 2020
Orbit: 346 x 10270 km, 28.4° (Epoch: 18 February)

Event Time Altitude Azimuth Distance (km) Brightness Sun altitude
Rises 07:25:38 0° 241° (WSW) 15,072 7.3 -58.4°
Enters shadow 07:42:12 - 240° (WSW) 13,117 6.9 -55.2°
Exits shadow 08:26:08 56° 201° (SSW) 4,203 4.3 -46.3°
Maximum altitude 08:29:25 60° 172° (S) 3,535 4.1 -45.7°
Drops below altitude 10° 08:39:58 10° 95° (E) 3,738 5.1 -43.5°
Sets 08:41:55 0° 91° (E) 4,250 5.6 -43.1°
